Regional Weather Roundup
Issued by NWS Upton, NY

Current Version | Previous Version | Graphics & Text | Print | Product List | Glossary Off
Versions: 1 2 3 4 5 6 7 8 9 10 11 12 13 14 15 16 17 18 19 20 21 22 23 24 25 26 27

000
ASUS41 KOKX 010204
RWROKX

REGIONAL WEATHER ROUNDUP
NATIONAL WEATHER SERVICE NEW YORK NY
1000 PM EDT WED AUG 31 2016

NOTE: "FAIR" INDICATES FEW OR NO CLOUDS BELOW 12,000 FEET WITH NO
SIGNIFICANT WEATHER AND/OR OBSTRUCTIONS TO VISIBILITY.

NYZ071-072-176-178-NJZ106-104-010300-
NEW YORK CITY METRO AREA

CITY           SKY/WX    TMP DP  RH WIND       PRES   REMARKS
Central Park   CLOUDY    79  66  64 MISG      29.92R
LaGuardia APRT CLOUDY    81  67  62 S12       29.88S
Kennedy INTL   CLOUDY    79  75  87 S15G21    29.90S
Newark/Liberty CLOUDY    80  67  64 S9        29.88S
Bronx Bot Gard   N/A     79  64  61 E2        29.90F
Wall St Helipt CLOUDY    79  70  73 W6        29.90S
Teterboro      CLOUDY    80  66  62 S9        29.87S
$$

NYZ177-179-078>081-010300-
LONG ISLAND NEW YORK

CITY           SKY/WX    TMP DP  RH WIND       PRES   REMARKS
Farmingdale    CLOUDY    78  69  73 SW9       29.90F
MacArthur/ISP  CLOUDY    77  70  79 S8        29.90S
Shirley        CLOUDY    76  71  85 S6        29.91F
Riverhead      NOT AVBL
Westhampton    CLOUDY    75  70  84 SW6       29.92F
Southampton      N/A     75  72  88 SW7       29.87S
Bridgehampton  NOT AVBL
East Hampton   FAIR      74  70  86 SW5       29.90F
Montauk          N/A     75  72  90 S7        29.92S
$$

NYZ052-065-067-010300-
HUDSON VALLEY

CITY           SKY/WX    TMP DP  RH WIND       PRES   REMARKS
White Plains   CLOUDY    76  67  73 S3        29.90S
Newburgh       MOCLDY    73  70  88 CALM      29.91S
Montgomery     CLOUDY    71  69  93 CALM      29.89S
Poughkeepsie   CLOUDY    70  68  93 CALM      29.88R
Albany         CLOUDY    71  66  84 CALM      29.89R
$$

NJZ001-105-106-008-010-013-015-019>022-104-010300-
NEW JERSEY

CITY           SKY/WX    TMP DP  RH WIND       PRES   REMARKS
Newark/Liberty CLOUDY    80  67  64 S9        29.88S
Teterboro      CLOUDY    80  66  62 S9        29.87S
Caldwell       CLOUDY    80  67  64 CALM      29.89S
Morristown     MOCLDY    79  68  69 CALM      29.89S
Somerville     CLOUDY    77  69  76 CALM      29.87S
Linden         FAIR      80  65  60 CALM      29.91R
Sussex         CLOUDY    72  71  97 CALM      29.90S
Abdover          N/A     72  69  90 CALM      29.91S
Trenton        CLOUDY    77  68  73 S10       29.90R
Millville      PTCLDY    76  72  87 CALM      29.92S
Atlantic City  MOCLDY    77  68  73 SW6       29.91F
Wrightstown    CLOUDY    73  69  87 VRB1      29.89S
Toms River     CLOUDY    75  67  76 SW6       29.92R
Belmar         CLOUDY    77  68  73 SW8       29.92S
$$

PAZ047>061-062-071-010300-
EASTERN PENNSYLVANIA

CITY           SKY/WX    TMP DP  RH WIND       PRES   REMARKS
Philadelphia   CLOUDY    76  69  79 S10       29.90F
Allentown      CLOUDY    77  69  76 W3        29.90S
Scranton       CLOUDY    72  68  87 CALM      29.93F
$$

CTZ002-004>006-009-010-012-RIZ004-006-007-MAZ004-011-015-010300-
SOUTHERN NEW ENGLAND
 IN CT

CITY           SKY/WX    TMP DP  RH WIND       PRES   REMARKS
Bradley INTL   MOCLDY    74  67  78 SW3       29.88F
Hartford       MOCLDY    78  70  76 S7        29.87F
Danbury        CLOUDY    74  68  81 S6        29.91S
Wtrbury/Oxford   N/A     72  66  83 S6        29.93F
Bridgeport     CLOUDY    79  71  76 SW9       29.89S
Meriden        CLOUDY    76  69  79 CALM      29.89S
New Haven      CLOUDY    77  71  82 SW8       29.90S
Chester        FAIR      73  72  94 S7        29.91F
Groton         LGT RAIN  75  70  84 SW5       29.90S
Wilimantic     MOCLDY    74  71  91 CALM      29.90S

 IN RI

CITY           SKY/WX    TMP DP  RH WIND       PRES   REMARKS
Providence     CLOUDY    75  69  81 SW6       29.91R
Block Island   CLOUDY    75  71  87 SW9       29.92S
Westerly       CLOUDY    75  69  81 SW5       29.91F
 IN MA

CITY           SKY/WX    TMP DP  RH WIND       PRES   REMARKS
Boston         LGT RAIN  76  67  73 S9        29.87R
Worcester      CLOUDY    70  64  81 SW9       29.91S
Westfield      CLOUDY    71  66  84 S5        29.88R
Provincetown   MOCLDY    72  70  93 SW13      29.89S
Nantucket      CLOUDY    71  67  87 SW10      29.92S
$$

ANZ330-335-338-340-345-350-353-355-010300-
COASTAL MARINE OBSERVATIONS


STATION/POSITION TIME  SKY/WX   TEMP    WIND        PRES    VSBY  WAVE
                                AIR SEA DIR/SP/G                  HT/PER
                 (UTC)          (F)     (DEG/KT/KT) (MB)    (MI)  (FT/S)
NY HARB ENTRANCE 0050            78 77  200/ 16/ 19 1012.0          4/11
20S FIRE ISLAND  0050            78 76  200/ 14/ 17 1012.1          4/12
GREAT SOUTH BAY  0100            78 80  220/ 10/ 14   N/A
23 SSW MONTAUK P 0050            77 78  210/ 16/ 17 1013.0          4/11
15 E BARNEGAT LI 0100               78                N/A           4/10
HUDSON CANYON    0050            78 78              1013.0          3/11
KINGS POINT      0100            78 78              1012.1
EXECUTION ROCKS  0100            78     190/ 12/ 16   N/A
CENTRAL LI SOUND 0100            77 76  210/ 12/ 14   N/A           1/ 3
EASTERN LI SOUND 0100            73 70  220/  8/  8   N/A
ROBBINS REEF     0106            79     180/ 14/ 17 1011.3
$$


>>>>>>>>>>>>>>>>>>>>>>>>>>>> KEY <<<<<<<<<<<<<<<<<<<<<<<<<<<
>                                                          <
>     SKY/WX - Sky Condition/Present Weather               <
>     TMP    - Temperature in Fahrenheit                   <
>     DP     - Dew Point in Fahrenheit                     <
>     RH     - Relative Humidity in Percent                <
>     WIND   - Direction (from) and Speed in MPH           <
>     PRES   - Mean Sea Level Pressure (inches of Hg)      <
>     WCI    - Wind Chill Index                            <
>     VSB    - VISIBILITY IN MILES                         <
>     HX     - HEAT INDEX                                  <
>     TC     - TEMPERATURE IN CELSIUS                      <
>     VRB    - VARIABLE WIND DIRECTION                     <
>                                                          <
>>>>>>>>>>>>>>>>>>>>>>>>>>>> KEY <<<<<<<<<<<<<<<<<<<<<<<<<<<




USA.gov is the U.S. government's official web portal to all federal, state and local government web resources and services.